GEESAT-6 08

Last updated on Sat Oct 25 2025 00:02:05 GMT+0000 (Coordinated Universal Time)

1 65720U 25214J 25297.70006207 .00003557 00000+0 42188-3 0 9996 2 65720 49.9899 320.6211 0015632 42.5410 317.6737 14.86618867 4539

Satellite not in orbit

GEESAT-6 08